| time (UTC) | temp C | wind direction | speed KPH | gust KPH | rain 1hr cm | rain 24hr cm | rain mn cm | humidity % | barometer mb |
| 20260505050105 | 15 | 175 | 0.0 | 0.0 | 0.00 | 0.00 | 0.00 | 78 | 999.7 |
| 20260505041508 | 16 | 175 | 0.0 | 0.0 | 0.00 | 0.00 | 0.00 | 73 | 999.0 |
| 20260505041056 | 17 | 175 | 0.0 | 0.0 | 0.00 | 0.00 | 0.00 | 73 | 999.0 |
| 20260505040544 | 17 | 175 | 0.0 | 0.0 | 0.00 | 0.00 | 0.00 | 73 | 998.9 |
| 20260505040003 | 17 | 175 | 0.0 | 0.0 | 0.00 | 0.00 | 0.00 | 72 | 998.7 |
| 20260505035552 | 17 | 175 | 0.0 | 0.0 | 0.00 | 0.00 | 0.00 | 72 | 998.7 |
| 20260505035041 | 17 | 175 | 0.0 | 0.0 | 0.00 | 0.00 | 0.00 | 71 | 998.6 |
| 20260505034512 | 17 | 175 | 0.0 | 0.0 | 0.00 | 0.00 | 0.00 | 71 | 998.5 |
| 20260505034102 | 18 | 175 | 0.0 | 0.0 | 0.00 | 0.00 | 0.00 | 71 | 998.4 |
| 20260505033551 | 18 | 175 | 0.0 | 0.0 | 0.00 | 0.00 | 0.00 | 71 | 998.4 |
| 20260505033013 | 18 | 175 | 0.0 | 0.0 | 0.00 | 0.00 | 0.00 | 70 | 998.3 |
| 20260505032601 | 18 | 175 | 0.0 | 0.0 | 0.00 | 0.00 | 0.00 | 70 | 998.3 |
| 20260505032052 | 18 | 175 | 0.0 | 0.0 | 0.00 | 0.00 | 0.00 | 70 | 998.2 |
| 20260505031601 | 18 | 175 | 0.0 | 0.0 | 0.00 | 0.00 | 0.00 | 70 | 998.1 |
| 20260505031047 | 18 | 175 | 0.0 | 0.0 | 0.00 | 0.00 | 0.00 | 69 | 998.0 |
| 20260505030538 | 19 | 175 | 0.0 | 0.0 | 0.00 | 0.00 | 0.00 | 70 | 998.0 |
| 20260505030057 | 19 | 175 | 0.0 | 0.0 | 0.00 | 0.00 | 0.00 | 70 | 998.0 |
| 20260505025545 | 19 | 175 | 0.0 | 0.0 | 0.00 | 0.00 | 0.00 | 69 | 997.9 |
| 20260505025034 | 19 | 175 | 0.0 | 4.8 | 0.00 | 0.00 | 0.00 | 68 | 997.9 |
| 20260505024506 | 20 | 175 | 0.0 | 6.4 | 0.00 | 0.00 | 0.00 | 68 | 997.9 |
| 20260505024053 | 20 | 184 | 0.0 | 6.4 | 0.00 | 0.00 | 0.00 | 68 | 997.8 |
| 20260505023543 | 20 | 51 | 0.0 | 9.7 | 0.00 | 0.00 | 0.00 | 66 | 997.8 |
| 20260505023011 | 20 | 195 | 1.6 | 9.7 | 0.00 | 0.00 | 0.00 | 66 | 997.8 |
| 20260505022554 | 20 | 182 | 0.0 | 9.7 | 0.00 | 0.00 | 0.00 | 65 | 997.7 |
| 20260505022042 | 20 | 302 | 1.6 | 12.9 | 0.00 | 0.00 | 0.00 | 65 | 997.8 |
| 20260505021515 | 20 | 173 | 4.8 | 12.9 | 0.00 | 0.00 | 0.00 | 65 | 997.7 |
| 20260505021103 | 20 | 240 | 0.0 | 9.7 | 0.00 | 0.00 | 0.00 | 65 | 997.7 |
| 20260505020550 | 21 | 142 | 1.6 | 16.1 | 0.00 | 0.00 | 0.00 | 64 | 997.8 |
| 20260505020008 | 21 | 229 | 6.4 | 16.1 | 0.00 | 0.00 | 0.00 | 64 | 997.7 |
| 20260505015559 | 21 | 308 | 4.8 | 16.1 | 0.00 | 0.00 | 0.00 | 64 | 997.7 |
| 20260505015048 | 21 | 182 | 3.2 | 11.3 | 0.00 | 0.00 | 0.00 | 64 | 997.7 |
| 20260505014514 | 21 | 249 | 0.0 | 4.8 | 0.00 | 0.00 | 0.00 | 64 | 997.7 |
| 20260505014102 | 21 | 199 | 0.0 | 8.0 | 0.00 | 0.00 | 0.00 | 63 | 997.7 |
| 20260505013548 | 21 | 159 | 1.6 | 11.3 | 0.00 | 0.00 | 0.00 | 63 | 997.7 |
| 20260505013006 | 22 | 294 | 4.8 | 11.3 | 0.00 | 0.00 | 0.00 | 63 | 997.7 |
| 20260505012557 | 22 | 165 | 3.2 | 8.0 | 0.00 | 0.00 | 0.00 | 63 | 997.8 |
| 20260505012046 | 22 | 169 | 3.2 | 8.0 | 0.00 | 0.00 | 0.00 | 64 | 997.7 |
| 20260505011505 | 22 | 212 | 1.6 | 12.9 | 0.00 | 0.00 | 0.00 | 64 | 997.8 |
| 20260505011055 | 22 | 201 | 3.2 | 11.3 | 0.00 | 0.00 | 0.00 | 64 | 997.8 |
| 20260505010542 | 22 | 136 | 4.8 | 11.3 | 0.00 | 0.00 | 0.00 | 64 | 997.9 |
| 20260505010004 | 22 | 284 | 3.2 | 11.3 | 0.00 | 0.00 | 0.00 | 64 | 997.9 |
| 20260505005554 | 22 | 193 | 0.0 | 8.0 | 0.00 | 0.00 | 0.00 | 64 | 997.9 |
| 20260505005042 | 22 | 193 | 1.6 | 8.0 | 0.00 | 0.00 | 0.00 | 63 | 997.8 |
| 20260505004503 | 22 | 56 | 1.6 | 8.0 | 0.00 | 0.00 | 0.00 | 63 | 997.8 |
| 20260505004052 | 22 | 264 | 0.0 | 6.4 | 0.00 | 0.00 | 0.00 | 64 | 998.0 |
| 20260505003543 | 22 | 171 | 1.6 | 6.4 | 0.00 | 0.00 | 0.00 | 63 | 998.0 |
| 20260505003002 | 22 | 195 | 1.6 | 8.0 | 0.00 | 0.00 | 0.00 | 64 | 998.1 |
| 20260505002553 | 22 | 111 | 0.0 | 12.9 | 0.00 | 0.00 | 0.00 | 63 | 998.1 |
| 20260505002042 | 22 | 171 | 4.8 | 12.9 | 0.00 | 0.00 | 0.00 | 63 | 998.1 |
| 20260505001502 | 22 | 74 | 1.6 | 9.7 | 0.00 | 0.00 | 0.00 | 63 | 998.1 |
| 20260505001054 | 22 | 204 | 3.2 | 9.7 | 0.00 | 0.00 | 0.00 | 64 | 998.1 |
| 20260505000543 | 22 | 220 | 3.2 | 9.7 | 0.00 | 0.00 | 0.00 | 63 | 998.2 |
| 20260505000109 | 22 | 96 | 1.6 | 11.3 | 0.00 | 0.00 | 0.00 | 63 | 998.3 |
| 20260504235552 | 22 | 132 | 1.6 | 11.3 | 0.00 | 0.00 | 0.00 | 64 | 998.2 |
| 20260504235039 | 22 | 98 | 1.6 | 14.5 | 0.00 | 0.00 | 0.00 | 64 | 998.3 |
| 20260504234500 | 22 | 155 | 6.4 | 14.5 | 0.00 | 0.00 | 0.00 | 64 | 998.3 |
| 20260504234051 | 22 | 249 | 4.8 | 12.9 | 0.00 | 0.00 | 0.00 | 64 | 998.4 |
| 20260504233539 | 22 | 233 | 0.0 | 8.0 | 0.00 | 0.00 | 0.00 | 64 | 998.5 |
| 20260504233108 | 22 | 65 | 1.6 | 11.3 | 0.00 | 0.00 | 0.00 | 64 | 998.6 |
| 20260504232551 | 22 | 186 | 1.6 | 14.5 | 0.00 | 0.00 | 0.00 | 62 | 998.6 |
| 20260504232038 | 22 | 182 | 3.2 | 14.5 | 0.00 | 0.00 | 0.00 | 63 | 998.6 |
| 20260504231601 | 22 | 125 | 3.2 | 6.4 | 0.00 | 0.00 | 0.00 | 64 | 998.5 |
| 20260504231048 | 22 | 242 | 1.6 | 9.7 | 0.00 | 0.00 | 0.00 | 64 | 998.6 |
| 20260504230539 | 22 | 55 | 0.0 | 9.7 | 0.00 | 0.00 | 0.00 | 62 | 998.6 |
| 20260504230105 | 22 | 132 | 3.2 | 8.0 | 0.00 | 0.00 | 0.00 | 63 | 998.7 |
| 20260504225547 | 22 | 127 | 3.2 | 14.5 | 0.00 | 0.00 | 0.00 | 64 | 998.7 |
| 20260504225035 | 22 | 206 | 4.8 | 14.5 | 0.00 | 0.00 | 0.00 | 64 | 998.8 |
| 20260504224558 | 22 | 201 | 3.2 | 14.5 | 0.00 | 0.00 | 0.00 | 63 | 998.8 |
| 20260504224046 | 22 | 251 | 4.8 | 14.5 | 0.00 | 0.00 | 0.00 | 64 | 998.9 |
| 20260504223533 | 22 | 151 | 3.2 | 14.5 | 0.00 | 0.00 | 0.00 | 62 | 999.0 |
| 20260504223005 | 22 | 73 | 1.6 | 14.5 | 0.00 | 0.00 | 0.00 | 65 | 999.0 |
| 20260504222554 | 22 | 360 | 1.6 | 11.3 | 0.00 | 0.00 | 0.00 | 64 | 999.0 |
| 20260504222041 | 22 | 238 | 3.2 | 12.9 | 0.00 | 0.00 | 0.00 | 64 | 999.1 |
| 20260504221502 | 22 | 264 | 6.4 | 12.9 | 0.00 | 0.00 | 0.00 | 63 | 999.2 |
| 20260504221051 | 21 | 131 | 3.2 | 14.5 | 0.00 | 0.00 | 0.00 | 65 | 999.1 |
| 20260504220540 | 21 | 159 | 6.4 | 14.5 | 0.00 | 0.00 | 0.00 | 63 | 999.2 |
| 20260504220009 | 21 | 266 | 4.8 | 9.7 | 0.00 | 0.00 | 0.00 | 63 | 999.2 |
| 20260504215559 | 22 | 232 | 3.2 | 16.1 | 0.00 | 0.00 | 0.00 | 62 | 999.3 |
| 20260504215047 | 21 | 175 | 8.0 | 16.1 | 0.00 | 0.00 | 0.00 | 63 | 999.3 |
| 20260504214517 | 22 | 113 | 3.2 | 8.0 | 0.00 | 0.00 | 0.00 | 62 | 999.3 |
| 20260504214058 | 22 | 182 | 3.2 | 8.0 | 0.00 | 0.00 | 0.00 | 63 | 999.4 |
| 20260504213547 | 21 | 246 | 1.6 | 8.0 | 0.00 | 0.00 | 0.00 | 63 | 999.4 |
| 20260504213008 | 21 | 284 | 0.0 | 11.3 | 0.00 | 0.00 | 0.00 | 66 | 999.5 |
| 20260504212559 | 21 | 252 | 3.2 | 14.5 | 0.00 | 0.00 | 0.00 | 63 | 999.5 |
| 20260504212047 | 21 | 260 | 6.4 | 12.9 | 0.00 | 0.00 | 0.00 | 65 | 999.7 |
| 20260504211514 | 20 | 355 | 1.6 | 6.4 | 0.00 | 0.00 | 0.00 | 66 | 999.8 |
| 20260504211058 | 20 | 134 | 1.6 | 6.4 | 0.00 | 0.00 | 0.00 | 65 | 999.9 |
| 20260504210548 | 21 | 81 | 1.6 | 11.3 | 0.00 | 0.00 | 0.00 | 65 | 1000.0 |
| 20260504210005 | 21 | 324 | 3.2 | 8.0 | 0.00 | 0.00 | 0.00 | 64 | 1000.1 |
| 20260504205556 | 20 | 167 | 1.6 | 12.9 | 0.00 | 0.00 | 0.00 | 68 | 1000.1 |
| 20260504205042 | 20 | 250 | 3.2 | 12.9 | 0.00 | 0.00 | 0.00 | 66 | 1000.2 |
| 20260504204517 | 20 | 254 | 1.6 | 9.7 | 0.00 | 0.00 | 0.00 | 67 | 1000.3 |
| 20260504204102 | 20 | 84 | 3.2 | 9.7 | 0.00 | 0.00 | 0.00 | 66 | 1000.3 |
| 20260504203549 | 19 | 105 | 3.2 | 6.4 | 0.00 | 0.00 | 0.00 | 66 | 1000.4 |
| 20260504203011 | 19 | 168 | 3.2 | 14.5 | 0.00 | 0.00 | 0.00 | 69 | 1000.5 |
| 20260504202601 | 19 | 129 | 4.8 | 14.5 | 0.00 | 0.00 | 0.00 | 67 | 1000.4 |
| 20260504202049 | 19 | 301 | 3.2 | 9.7 | 0.00 | 0.00 | 0.00 | 67 | 1000.4 |
| 20260504201514 | 19 | 186 | 4.8 | 11.3 | 0.00 | 0.00 | 0.00 | 70 | 1000.5 |
| 20260504201004 | 18 | 98 | 4.8 | 11.3 | 0.00 | 0.00 | 0.00 | 71 | 1000.6 |
| 20260504200553 | 18 | 54 | 1.6 | 8.0 | 0.00 | 0.00 | 0.00 | 68 | 1000.6 |
| 20260504200013 | 18 | 90 | 3.2 | 9.7 | 0.00 | 0.00 | 0.00 | 69 | 1000.7 |
| 20260504195502 | 18 | 166 | 4.8 | 9.7 | 0.00 | 0.00 | 0.00 | 69 | 1000.7 |
| 20260504195051 | 18 | 236 | 3.2 | 12.9 | 0.00 | 0.00 | 0.00 | 70 | 1000.7 |
| 20260504194513 | 17 | 230 | 6.4 | 12.9 | 0.00 | 0.00 | 0.00 | 71 | 1000.7 |
| 20260504194002 | 17 | 92 | 3.2 | 6.4 | 0.00 | 0.00 | 0.00 | 72 | 1000.7 |
| 20260504193543 | 17 | 79 | 3.2 | 9.7 | 0.00 | 0.00 | 0.00 | 72 | 1000.7 |
| 20260504193004 | 17 | 190 | 4.8 | 9.7 | 0.00 | 0.00 | 0.00 | 70 | 1000.8 |
| 20260504192554 | 17 | 152 | 1.6 | 6.4 | 0.00 | 0.00 | 0.00 | 71 | 1000.8 |
| 20260504192042 | 16 | 360 | 1.6 | 6.4 | 0.00 | 0.00 | 0.00 | 72 | 1000.8 |
| 20260504191608 | 17 | 115 | 3.2 | 6.4 | 0.00 | 0.00 | 0.00 | 71 | 1000.9 |
| 20260504191051 | 16 | 97 | 3.2 | 6.4 | 0.00 | 0.00 | 0.00 | 75 | 1001.1 |
| 20260504190539 | 16 | 245 | 1.6 | 6.4 | 0.00 | 0.00 | 0.00 | 73 | 1001.1 |
| 20260504190116 | 16 | 49 | 1.6 | 6.4 | 0.00 | 0.00 | 0.00 | 75 | 1001.2 |
| 20260504185549 | 16 | 64 | 1.6 | 6.4 | 0.00 | 0.00 | 0.00 | 75 | 1001.2 |
| 20260504185037 | 15 | 77 | 3.2 | 8.0 | 0.00 | 0.00 | 0.00 | 75 | 1001.2 |
| 20260504184506 | 15 | 271 | 3.2 | 9.7 | 0.00 | 0.00 | 0.00 | 76 | 1001.3 |
| 20260504184055 | 15 | 158 | 3.2 | 11.3 | 0.00 | 0.00 | 0.00 | 76 | 1001.3 |
| 20260504183542 | 15 | 193 | 3.2 | 6.4 | 0.00 | 0.00 | 0.00 | 75 | 1001.3 |
| 20260504183004 | 15 | 311 | 0.0 | 4.8 | 0.00 | 0.00 | 0.00 | 76 | 1001.3 |
| 20260504182554 | 15 | 77 | 0.0 | 4.8 | 0.00 | 0.00 | 0.00 | 76 | 1001.3 |
| 20260504182042 | 15 | 267 | 1.6 | 4.8 | 0.00 | 0.00 | 0.00 | 76 | 1001.2 |
| 20260504181503 | 15 | 102 | 0.0 | 4.8 | 0.00 | 0.00 | 0.00 | 77 | 1001.3 |
| 20260504181053 | 15 | 100 | 3.2 | 4.8 | 0.00 | 0.00 | 0.00 | 77 | 1001.2 |
| 20260504180541 | 15 | 123 | 3.2 | 6.4 | 0.00 | 0.00 | 0.00 | 77 | 1001.3 |
| 20260504175550 | 15 | 128 | 1.6 | 4.8 | 0.00 | 0.00 | 0.00 | 78 | 1001.2 |
| 20260504175039 | 15 | 157 | 1.6 | 9.7 | 0.00 | 0.00 | 0.00 | 78 | 1001.3 |
| 20260504174601 | 15 | 178 | 1.6 | 9.7 | 0.00 | 0.00 | 0.00 | 78 | 1001.2 |
| 20260504174050 | 14 | 250 | 1.6 | 6.4 | 0.00 | 0.00 | 0.00 | 78 | 1001.2 |
| 20260504173541 | 14 | 115 | 0.0 | 11.3 | 0.00 | 0.00 | 0.00 | 78 | 1001.1 |
| 20260504173101 | 14 | 219 | 1.6 | 11.3 | 0.00 | 0.00 | 0.00 | 78 | 1001.2 |
| 20260504172549 | 14 | 155 | 1.6 | 8.0 | 0.00 | 0.00 | 0.00 | 77 | 1001.2 |
| 20260504172037 | 14 | 190 | 1.6 | 9.7 | 0.00 | 0.00 | 0.00 | 78 | 1001.1 |
| 20260504171509 | 14 | 188 | 4.8 | 9.7 | 0.00 | 0.00 | 0.00 | 79 | 1001.1 |
| 20260504171058 | 14 | 171 | 4.8 | 11.3 | 0.00 | 0.00 | 0.00 | 78 | 1001.0 |
| 20260504170545 | 14 | 331 | 0.0 | 11.3 | 0.00 | 0.00 | 0.00 | 78 | 1001.0 |
| 20260504160106 | 13 | 207 | 1.6 | 11.3 | 0.00 | 0.00 | 0.00 | 81 | 1000.7 |
| 20260504151048 | 13 | 192 | 0.0 | 8.0 | 0.00 | 0.00 | 0.00 | 80 | 1000.4 |
| 20260504150535 | 13 | 331 | 0.0 | 6.4 | 0.00 | 0.00 | 0.00 | 80 | 1000.5 |
| 20260504141058 | 12 | 183 | 0.0 | 3.2 | 0.00 | 0.00 | 0.00 | 83 | 999.8 |
| 20260504140546 | 12 | 178 | 0.0 | 1.6 | 0.00 | 0.00 | 0.00 | 82 | 999.7 |
| 20260504130540 | 12 | 197 | 0.0 | 4.8 | 0.00 | 0.00 | 0.00 | 79 | 998.7 |
| 20260504110545 | 15 | 299 | 0.0 | 3.2 | 0.00 | 0.00 | 0.00 | 69 | 997.0 |
| 20260504100537 | 18 | 207 | 0.0 | 3.2 | 0.00 | 0.00 | 0.00 | 61 | 996.2 |
| 20260504100105 | 18 | 207 | 0.0 | 3.2 | 0.00 | 0.00 | 0.00 | 62 | 996.2 |
| 20260504081503 | 20 | 265 | 1.6 | 6.4 | 0.00 | 0.00 | 0.00 | 51 | 995.9 |
| 20260504081054 | 20 | 282 | 3.2 | 6.4 | 0.00 | 0.00 | 0.00 | 51 | 995.9 |
| 20260504080541 | 20 | 285 | 1.6 | 6.4 | 0.00 | 0.00 | 0.00 | 50 | 995.8 |
| 20260504060106 | 22 | 269 | 3.2 | 8.0 | 0.00 | 0.00 | 0.00 | 43 | 995.5 |
| 20260504050543 | 22 | 262 | 3.2 | 8.0 | 0.00 | 0.00 | 0.00 | 45 | 995.4 |